| time (UTC) | temp C | wind direction | speed KPH | gust KPH | rain 1hr cm | rain 24hr cm | rain mn cm | humidity % | barometer mb |
| 20260503211620 | 12 | 262 | 3.2 | 9.7 | 0.00 | 0.00 | 0.00 | 29 | 1006.3 |
| 20260503210035 | 13 | 179 | 3.2 | 12.9 | 0.00 | 0.00 | 0.00 | 25 | 1006.6 |
| 20260503204552 | 12 | 261 | 0.0 | 14.5 | 0.00 | 0.00 | 0.00 | 28 | 1007.0 |
| 20260503203051 | 12 | 271 | 8.0 | 16.1 | 0.00 | 0.00 | 0.00 | 23 | 1007.3 |
| 20260503201547 | 13 | 182 | 3.2 | 11.3 | 0.00 | 0.00 | 0.00 | 30 | 1007.5 |
| 20260503200052 | 12 | 131 | 4.8 | 14.5 | 0.00 | 0.00 | 0.00 | 25 | 1007.6 |
| 20260503194554 | 11 | 146 | 0.0 | 9.7 | 0.00 | 0.00 | 0.00 | 28 | 1007.9 |
| 20260503193113 | 12 | 153 | 3.2 | 11.3 | 0.00 | 0.00 | 0.00 | 30 | 1008.1 |
| 20260503191620 | 12 | 166 | 3.2 | 9.7 | 0.00 | 0.00 | 0.00 | 29 | 1008.4 |
| 20260503190111 | 11 | 123 | 1.6 | 11.3 | 0.00 | 0.00 | 0.00 | 31 | 1008.6 |
| 20260503184622 | 11 | 247 | 3.2 | 12.9 | 0.00 | 0.00 | 0.00 | 29 | 1009.0 |
| 20260503183114 | 11 | 163 | 3.2 | 9.7 | 0.00 | 0.00 | 0.00 | 35 | 1009.4 |
| 20260503181600 | 11 | 299 | 3.2 | 14.5 | 0.00 | 0.00 | 0.00 | 28 | 1009.7 |
| 20260503180109 | 11 | 261 | 3.2 | 9.7 | 0.00 | 0.00 | 0.00 | 33 | 1010.1 |
| 20260503174502 | 11 | 320 | 3.2 | 11.3 | 0.00 | 0.00 | 0.00 | 34 | 1010.3 |
| 20260503173008 | 10 | 284 | 3.2 | 12.9 | 0.00 | 0.00 | 0.00 | 31 | 1010.6 |
| 20260503171531 | 10 | 329 | 3.2 | 14.5 | 0.00 | 0.00 | 0.00 | 32 | 1010.8 |
| 20260503150113 | 7 | 330 | 1.6 | 8.0 | 0.00 | 0.00 | 0.00 | 39 | 1012.2 |
| 20260503140121 | 5 | 5 | 0.0 | 0.0 | 0.00 | 0.00 | 0.00 | 45 | 1012.4 |
| 20260503100110 | 2 | 118 | 1.6 | 6.4 | 0.00 | 0.00 | 0.00 | 47 | 1013.5 |
| 20260503081546 | 2 | 118 | 0.0 | 0.0 | 0.00 | 0.00 | 0.00 | 47 | 1014.1 |
| 20260503071613 | 2 | 118 | 0.0 | 0.0 | 0.00 | 0.00 | 0.00 | 49 | 1014.6 |
| 20260503070124 | 2 | 118 | 0.0 | 0.0 | 0.00 | 0.00 | 0.00 | 48 | 1014.6 |
| 20260503054507 | 4 | 182 | 0.0 | 0.0 | 0.00 | 0.00 | 0.00 | 39 | 1015.1 |
| 20260503053106 | 4 | 182 | 0.0 | 0.0 | 0.00 | 0.00 | 0.00 | 37 | 1015.3 |
| 20260503051555 | 3 | 178 | 0.0 | 0.0 | 0.00 | 0.00 | 0.00 | 38 | 1015.4 |
| 20260503050052 | 3 | 178 | 0.0 | 0.0 | 0.00 | 0.00 | 0.00 | 43 | 1015.4 |
| 20260503044547 | 4 | 178 | 0.0 | 0.0 | 0.00 | 0.00 | 0.00 | 40 | 1015.6 |
| 20260503043057 | 4 | 178 | 0.0 | 4.8 | 0.00 | 0.00 | 0.00 | 40 | 1015.7 |
| 20260503041615 | 4 | 346 | 0.0 | 0.0 | 0.00 | 0.00 | 0.00 | 43 | 1015.9 |
| 20260503040041 | 5 | 346 | 0.0 | 0.0 | 0.00 | 0.00 | 0.00 | 43 | 1016.0 |
| 20260503034603 | 5 | 162 | 3.2 | 9.7 | 0.00 | 0.00 | 0.00 | 40 | 1015.8 |
| 20260503033127 | 6 | 134 | 0.0 | 8.0 | 0.00 | 0.00 | 0.00 | 41 | 1015.7 |
| 20260503031626 | 6 | 183 | 1.6 | 11.3 | 0.00 | 0.00 | 0.00 | 41 | 1015.7 |
| 20260503030003 | 6 | 155 | 8.0 | 14.5 | 0.00 | 0.00 | 0.00 | 42 | 1015.6 |
| 20260503024517 | 6 | 105 | 8.0 | 16.1 | 0.00 | 0.00 | 0.00 | 43 | 1015.3 |
| 20260503023025 | 6 | 128 | 4.8 | 12.9 | 0.00 | 0.00 | 0.00 | 42 | 1015.3 |
| 20260503021513 | 6 | 128 | 8.0 | 17.7 | 0.00 | 0.00 | 0.00 | 40 | 1015.2 |
| 20260503020044 | 6 | 153 | 8.0 | 16.1 | 0.00 | 0.00 | 0.00 | 39 | 1015.1 |
| 20260503014617 | 7 | 141 | 3.2 | 12.9 | 0.00 | 0.00 | 0.00 | 39 | 1015.1 |
| 20260503013051 | 8 | 148 | 6.4 | 17.7 | 0.00 | 0.00 | 0.00 | 35 | 1015.1 |
| 20260503011525 | 8 | 150 | 3.2 | 14.5 | 0.00 | 0.00 | 0.00 | 33 | 1015.0 |
| 20260503010046 | 9 | 165 | 6.4 | 17.7 | 0.00 | 0.00 | 0.00 | 30 | 1015.1 |
| 20260503004556 | 11 | 217 | 1.6 | 6.4 | 0.00 | 0.00 | 0.00 | 25 | 1015.1 |
| 20260503003053 | 11 | 275 | 3.2 | 11.3 | 0.00 | 0.00 | 0.00 | 25 | 1015.4 |
| 20260503001559 | 11 | 313 | 0.0 | 6.4 | 0.00 | 0.00 | 0.00 | 26 | 1015.5 |
| 20260503000108 | 11 | 140 | 1.6 | 8.0 | 0.00 | 0.00 | 0.00 | 23 | 1015.9 |
| 20260502234617 | 11 | 165 | 1.6 | 11.3 | 0.00 | 0.00 | 0.00 | 26 | 1016.1 |
| 20260502233030 | 11 | 42 | 1.6 | 11.3 | 0.00 | 0.00 | 0.00 | 22 | 1016.3 |
| 20260502231521 | 10 | 177 | 3.2 | 12.9 | 0.00 | 0.00 | 0.00 | 22 | 1016.4 |
| 20260502230028 | 11 | 111 | 0.0 | 11.3 | 0.00 | 0.00 | 0.00 | 24 | 1016.5 |
| 20260502224528 | 10 | 213 | 1.6 | 11.3 | 0.00 | 0.00 | 0.00 | 23 | 1016.6 |
| 20260502223037 | 11 | 114 | 3.2 | 8.0 | 0.00 | 0.00 | 0.00 | 21 | 1016.9 |
| 20260502221540 | 11 | 275 | 1.6 | 9.7 | 0.00 | 0.00 | 0.00 | 26 | 1017.2 |
| 20260502220033 | 11 | 240 | 3.2 | 6.4 | 0.00 | 0.00 | 0.00 | 25 | 1017.6 |
| 20260502214510 | 10 | 281 | 1.6 | 9.7 | 0.00 | 0.00 | 0.00 | 25 | 1017.9 |
| 20260502213124 | 10 | 249 | 0.0 | 9.7 | 0.00 | 0.00 | 0.00 | 27 | 1018.4 |